DELTA 1 DEB, 2977

Orbit data source: Space-Track

DELTA 1 DEB, 2977 is space debris in SSO originally from a launch on Thu, 20 Apr 1967 UTC launched from the Air Force Western Test Range (AFWTR). Debris objects in space refer to the collection of defunct objects orbiting the Earth. Examples of debris include non-operational satellites, rocket bodies, and fragments generated from explosions, collisions, or faulty payload assembly.

Loading next visibility...
Identifier
2977, 1967-036D
Orbit
SSO
Last TLE update
2 days ago
Origin
Manufacturer
Unknown
Mission
Spacecraft
Bus & Motor
Unknown
Mass
Unknown
Launch date (UTC)
1967-04-20 (58 years ago)
Launch vehicle
Unknown
Launch site
Air Force Western Test Range (AFWTR)
Object type
Payload
Rocket body
Debris
Shape & HBR
Unknown
Radar Cross Section
Small (<0.1 m²)

Expand to show TLE details & history

TLE from 2 days ago
0 DELTA 1 DEB
1 02977U 67036D   25190.86179819 -.00000032  00000-0  76023-4 0  9991
2 02977 101.5606 155.6514 0059242 216.3031 201.2459 12.56851873670384
Epoch: 2025-07-09T20:40Z
TLE epoch observation values (Epoch: 2025-07-09T20:40:59.363Z)
Latitude
55.62982°
Longitude
-99.94667°
Altitude
1,488.206 km
Speed
7.105 km/s
True Right ascension
09h 13m 20s
True Declination
55° 29' 04"
Sunlit
Object was in daylight at epoch
Visualization orbit readout
Latitude
61.97576°
Longitude
121.34664°
Altitude
1,452.196 km
Speed
7.139 km/s
Apparent Right ascension
06h 21m 15s
Apparent Declination
44° 22' 13"
Sunlit
Object is in daylight
Visualization observer readout
Local Sidereal Time
21:35:14
Azimuth
32.502° NE
Elevation
4.899°
Doppler factor
1
Orbital elements
Apogee altitude
1,479.77 km
Perigee altitude
1,387.215 km
Semi-major axis
7,811.629 km
Eccentricity
0.00592
Inclination
101.5606°
RAAN
155.6514°
Arg. of periapsis
216.3031°
True anomaly
Unknown
Mean anomaly
201.2459°
Eccentric anomaly
Unknown
Mean motion
3.14362 °/min
Orbital period
114.52 mins
BSTAR
0.000076023
Loading maneuver chart data...
Loading SW <> Apogee altitude chart data...
Loading historical data...
Loading historical data...
Loading historical data...
Loading historical data...
Loading historical data...
Loading historical data...
Loading historical data...
Other satellites on launch #36 in the year 1967 (1967-04-20 UTC)

DELTA 1 DEB Visibility forecast

Observer location: undefined°, undefined°

Span
Click to sort rows by Start time (UTC) header in descending order
Start Az.
Max El. time (UTC)
Max El. Az.
Max El.
End time (UTC)
End Az.
13 mins2025-07-11 09:19:33.674Z40.765° NE2025-07-11 09:25:33.674Z89.886° E24.742°2025-07-11 09:32:33.674Z150.348° SSE
14 mins2025-07-11 11:12:33.674Z8.138° NNE2025-07-11 11:18:33.674Z307.013° NW41.456°2025-07-11 11:26:33.674Z215.497° SW
5 mins2025-07-11 13:07:33.674Z331.058° NNW2025-07-11 13:09:33.674Z315.662° NNW13.549°2025-07-11 13:12:33.674Z292.591° NW
13 mins2025-07-11 20:16:33.674Z119.558° SE2025-07-11 20:22:33.674Z66.559° ENE31.427°2025-07-11 20:29:33.674Z0.441° NNE
14 mins2025-07-11 22:08:33.674Z187.965° SSW2025-07-11 22:15:33.674Z266.682° W37.857°2025-07-11 22:22:33.674Z331.124° NNW
|